This demonstration page uses our WeatherBlox Daily Observations layout. Learn more.

Left ArrowRight Arrow

38.83388, -104.82136

Hourly Observations for April 17, 2017

Temp ( °F °C ) Dew Point ( °F °C ) Humidity (%) Winds ( mph kmh ) Pressure ( in mb ) Visibility ( mi km ) Precip ( " mm )
12:58 am 00:58 Clear 46 7.9 41 5 82 82 Calm 29.70 1006 10 16 0.00 0.00
1:58 am 01:58 Mostly Clear 45 7 42 5.6 91 91 SSE 5 7 29.72 1006 10 16 0.00 0.00
2:08 am 02:08 Mostly Cloudy 45 7 43 6 93 93 Calm 29.97 1015 10 16 0.00 0.00
2:18 am 02:18 Partly Cloudy 45 7 43 6 93 93 S 5 7 29.97 1015 10 16 0.00 0.00
2:53 am 02:53 Mostly Cloudy 45 7 43 6 93 93 S 8 13 29.97 1015 10 16 0.00 0.00
2:58 am 02:58 Mostly Cloudy 45 7.2 42 5.6 90 90 SSW 10 17 29.72 1007 10 16 0.00 0.00
3:03 am 03:03 Partly Cloudy 45 7 43 6 93 93 SSW 9 15 29.97 1015 10 16 0.00 0.00
3:33 am 03:33 Mostly Cloudy with Fog 45 7 43 6 93 93 S 5 7 29.97 1015 3 5 0.00 0.00
3:58 am 03:58 Mostly Cloudy with Mist and Fog 44 6.8 44 6.4 97 97 Calm 29.72 1007 7 11 0.00 0.00
4:18 am 04:18 Mostly Cloudy with Fog 45 7 43 6 93 93 SSE 3 6 29.97 1015 1 1 0.00 0.00
4:23 am 04:23 Mostly Cloudy with Fog 45 7 43 6 93 93 Calm 29.97 1015 0 0 0.00 0.00
4:38 am 04:38 Mostly Cloudy with Mist and Fog 45 7 43 6 93 93 Calm 29.97 1015 7 11 0.00 0.00
4:53 am 04:53 Mostly Cloudy with Mist and Fog 45 7 43 6 93 93 SE 3 6 29.97 1015 4 6 0.00 0.00
4:58 am 04:58 Mostly Cloudy with Fog 44 6.8 44 6.5 98 98 Calm 29.72 1007 3 5 0.00 0.00
5:03 am 05:03 Mostly Cloudy with Fog 45 7 43 6 93 93 Calm 29.97 1015 1 2 0.00 0.00
5:33 am 05:33 Mostly Cloudy with Patchy Fog 43 6 43 6 100 100 SW 6 9 30.00 1016 6 10 0.00 0.00
5:38 am 05:38 Partly Cloudy 45 7 41 5 87 87 SW 5 7 29.97 1015 10 16 0.00 0.00
5:58 am 05:58 Mostly Clear with Patchy Fog 43 6.2 42 5.4 95 95 Calm 29.73 1007 3 4 0.00 0.00
6:58 am 06:58 Sunny 44 6.5 39 4.1 85 85 Calm 29.74 1007 10 16 0.00 0.00
8:58 am 08:58 Mostly Cloudy 47 8.5 44 6.7 89 89 SSE 10 17 29.72 1006 10 16 0.00 0.00
9:18 am 09:18 Mostly Cloudy 50 10 45 7 82 82 SE 10 17 29.85 1011 10 16 0.00 0.00
9:28 am 09:28 Mostly Cloudy 52 11 45 7 77 77 SE 9 15 29.83 1010 10 16 0.00 0.00
9:58 am 09:58 Mostly Sunny 55 12.9 44 6.4 65 65 SSE 9 15 29.67 1005 10 16 0.00 0.00
10:58 am 10:58 Sunny 57 13.9 46 7.5 66 66 SE 17 28 29.63 1004 10 16 0.00 0.00
11:58 am 11:58 Sunny 62 16.5 41 4.9 46 46 ESE 13 20 29.61 1003 10 16 0.00 0.00
12:48 pm 12:48 Mostly Sunny 66 19 34 1 30 30 ESE 25 41 29.56 1001 10 16 0.00 0.00
12:58 pm 12:58 Sunny 66 19 18 -8 15 15 SSE 18 30 29.55 1001 10 16 0.00 0.00
12:59 pm 12:59 Sunny 66 19 16 -9 14 14 S 16 26 29.56 1001 10 16 0.00 0.00
1:19 pm 13:19 Sunny 66 19 27 -3 22 22 S 15 24 29.56 1001 10 16 0.00 0.00
1:28 pm 13:28 Sunny 66 19 19 -7 17 17 SE 14 22 29.56 1001 10 16 0.00 0.00
1:58 pm 13:58 Mostly Cloudy 67 19.5 31 -0.4 26 26 SE 23 37 29.53 1000 10 16 0.00 0.00
2:58 pm 14:58 Sunny 64 18 35 1.8 34 34 SSE 16 26 29.54 1000 10 16 0.00 0.00
3:58 pm 15:58 Mostly Cloudy 65 18.3 29 -1.4 26 26 SSE 17 28 29.53 1000 10 16 0.00 0.00
4:58 pm 16:58 Partly Cloudy 64 17.9 34 1.2 33 33 SSE 18 30 29.53 1000 10 16 0.00 0.00
5:58 pm 17:58 Sunny 62 16.6 36 2.1 38 38 SSE 13 20 29.53 1000 10 16 0.00 0.00
6:58 pm 18:58 Sunny 61 16.3 37 2.5 40 40 S 13 20 29.55 1001 10 16 0.00 0.00
7:58 pm 19:58 Mostly Cloudy 61 15.9 37 2.5 41 41 S 8 13 29.54 1001 10 16 0.00 0.00
8:58 pm 20:58 Clear 57 14.1 47 8.6 70 70 S 10 17 29.57 1001 10 16 0.00 0.00
9:58 pm 21:58 Clear 57 13.8 47 8.1 69 69 SW 9 15 29.55 1001 10 16 0.00 0.00
10:58 pm 22:58 Clear 54 12.3 42 5.4 63 63 N 7 11 29.57 1001 10 16 0.00 0.00
11:58 pm 23:58 Clear 53 11.5 39 3.8 59 59 WNW 8 13 29.56 1001 10 16 0.00 0.00

Powered by AerisWeather